Regional Weather Roundup
Issued by NWS

Home | Current Version | Previous Version | Text Only | Print | Product List | Glossary On
Versions: 1 2 3 4 5 6 7 8 9 10 11 12 13 14 15 16 17 18 19 20 21 22 23 24 25 26 27 28 29 30 31 32 33 34 35 36 37 38 39 40 41 42 43 44 45 46 47 48 49 50
000
ASUS44 KMEG 212010
RWRTN
TENNESSEE HOURLY STATE WEATHER ROUNDUP
NATIONAL WEATHER SERVICE MEMPHIS TN
200 PM CST SUN DEC 21 2014

TNZ002-004-019-021-049-052-054-088>092-212100-
WEST TENNESSEE

CITY           SKY/WX    TMP DP  RH WIND       PRES   REMARKS
MEMPHIS INTL   MOSUNNY   56  32  40 E3        30.05F
NWS MEMPHIS      N/A     54 N/A N/A MISG        N/A
JACKSON        SUNNY     53  30  41 VRB5      30.07F
DYERSBURG      SUNNY     52  28  40 CALM      30.09F
UNION CITY     SUNNY     48  34  57 NE3       30.07F
PARIS          SUNNY     48  30  49 SE6       30.08F
HUNTINGDON     SUNNY     50  27  41 S3        30.07F
LEXINGTON      SUNNY     54  30  40 VRB5      30.06F
SAVANNAH       SUNNY     54  36  50 S5        30.06F
$$

TNZ008-025-027-028-033-062-065-066-212100-
NORTH MIDDLE TENNESSEE

CITY           SKY/WX    TMP DP  RH WIND       PRES   REMARKS
NASHVILLE      MOSUNNY   53  31  42 E6        30.09F
CLARKSVILLE    SUNNY     50  31  48 CALM      30.10F
SMYRNA         SUNNY     54  36  50 VRB5      30.10F
COOKEVILLE     SUNNY     54  37  54 S5        30.08F
CROSSVILLE     PTSUNNY   48  34  58 S7        30.09F
$$

TNZ061-075-076-078-094-096-097-212100-
SOUTH MIDDLE TENNESSEE

CITY           SKY/WX    TMP DP  RH WIND       PRES   REMARKS
FAYETTEVILLE   CLOUDY    50  37  62 MISG      30.08F
TULLAHOMA      CLOUDY    50  37  62 S3        30.09F
WINCHESTER     CLOUDY    50  39  66 SE7       30.09F
MCMINNVILLE    CLOUDY    52  39  62 CALM      30.09F
COLUMBIA       CLOUDY    52  39  62 N3        30.06F
SHELBYVILLE    CLOUDY    54  39  58 S7        30.10F
$$

TNZ017-018-042-046-047-212100-
NORTHEAST TENNESSEE

CITY           SKY/WX    TMP DP  RH WIND       PRES   REMARKS
TRI CITIES     MOSUNNY   51  34  52 NE5       30.13F
ELIZABETHTON   CLEAR     52  36  54 CALM      30.12F
$$

TNZ012-013-036-069-073-074-212100-
CENTRAL EAST TENNESSEE

CITY           SKY/WX    TMP DP  RH WIND       PRES   REMARKS
KNOXVILLE      MOSUNNY   52  36  54 N6        30.11F
OAK RIDGE      CLOUDY    50  32  50 CALM      30.14F
GATLINBURG     CLEAR     52  36  54 N6        30.11F
MORRISTOWN     CLEAR     50  36  57 N6        30.13F
$$

TNZ083-085-099-212100-
SOUTHEAST TENNESSEE

CITY           SKY/WX    TMP DP  RH WIND       PRES   REMARKS
CHATTANOOGA    CLOUDY    48  35  60 NE5       30.12F
$$

SKY/WX REPORTED AS FAIR MEANS FEW OR NO CLOUDS BELOW
12 THOUSAND FEET.



USA.gov is the U.S. government's official web portal to all federal, state and local government web resources and services.